Погода в Толедо

Испания     39°51′47″N   4°01′26″W
темп.,
°C
ветер,
м/с
пор.,
м/с
влажн.,
%
обл.,
%
осадки,
мм/ч
давл.,
гПа
погр.,
м
1 августа, вс
вс123:00+18с611470 0.0 1016335
02:00+16вюв33530 0.0 101620
05:00+14ююв22675 0.0 101511
08:00+15юв22655 0.0 101622
11:00+20ююз1343100 0.0 10161362
14:00+25зсз352631 0.0 10142338
17:00+27сз7719100 0.0 10122543
20:00+26зсз5516100 0.0 10121678
2 августа, пн
пн223:00+21зюз3320100 0.0 101322
02:00+19юз222536 0.0 101311
05:00+17зсз333277 0.0 101311
08:00+16зсз22460 0.0 101411
11:00+22з22300 0.0 1014616
14:00+27ссз22190 0.0 10132579
17:00+29с44161 0.0 10113388
20:00+29с531730 0.0 10112084
3 августа, вт
вт323:00+23в562649 0.0 101368
02:00+20юв610705 0.0 1014188
05:00+17вюв22875 0.0 101517
08:00+17в22905 0.0 101654
11:00+23ссз11535 0.0 1016518
14:00+30сз352480 0.0 10142813
17:00+32сз5719100 0.0 10123271
20:00+31зсз7718100 0.0 10113010
4 августа, ср
ср423:00+25юз4424100 0.0 101330
02:00+22с3330100 0.0 101415
05:00+18св114126 0.0 101311
08:00+18з1147100 0.0 101511
11:00+24ссз333562 0.0 1015789
14:00+29сз442464 0.0 10151740
17:00+31ссз33170 0.0 10142279
20:00+31с43160 0.0 10142084
5 августа, чт
чт523:00+23с44220 0.0 101734
02:00+21вюв22250 0.0 101711
05:00+19вюв22320 0.0 101711
08:00+19вюв11590 0.0 101711
11:00+26св11390 0.0 1017534
14:00+32ссз44190 0.0 10161953
17:00+34зсз45140 0.0 10131882
20:00+34сз46130 0.0 10111847